User: anonymous   Login
Location: Sawmill Trailhead
(33.5800°N, 116.4497°W)
Time: 01:48:54
(UTC-07:00)
Language:

Uosat F - Orbit

View from above orbital plane
View from above orbital plane
View from above satellite
View from above satellite

Ground track
Ground track

The orbit data is extracted from the following two-line orbital elements,

1 21575U 91050B   15114.12131119  .00000477  00000-0  16391-3 0  9997
2 21575 098.7362 101.1073 0008381 113.1096 018.9114 14.40610403248248
Epoch (UTC): 24 April 2015 02:54:41
Eccentricity: 0.0008381
inclination: 98.7362°
perigee height: 750 km
apogee height: 762 km
right ascension of ascending node: 101.1073°
argument of perigee: 113.1096°
revolutions per day: 14.40610403
mean anomaly at epoch: 18.9114°
orbit number at epoch: 24824

The dashed part of the orbit path shows where the satellite is in the earth's shadow,  

DLR